This is the latest recevied weather packets stored in our database for station/object KB3KBR-WX. If no packets are shown the sender has not sent any weather packets the latest 10 day(s).
| Time | Temp. | Humidity | Pressure | Rain* | Wind** | Luminosity | Snow |
|---|---|---|---|---|---|---|---|
| 1778067180 | 7.78° C | 94% | 1003.3 hPa | 2.29 mm | - | - | - |
| 1778066880 | 7.78° C | 94% | 1003.3 hPa | 2.79 mm | - | - | - |
| 1778066707 | 7.78° C | 94% | 1003.8 hPa | 2.54 mm | - | - | - |
| 1778066580 | 7.78° C | 94% | 1003.8 hPa | 2.54 mm | - | - | - |
| 1778066250 | 8.33° C | 94% | 1003.8 hPa | 3.05 mm | - | - | - |
| 1778065950 | 8.33° C | 94% | 1003.7 hPa | 2.79 mm | - | - | - |
| 1778065620 | 8.33° C | 94% | 1003.7 hPa | 3.05 mm | - | - | - |
| 1778065366 | 8.33° C | 94% | 1003.8 hPa | 3.05 mm | - | - | - |
| 1778065290 | 8.33° C | 94% | 1003.8 hPa | 3.05 mm | - | - | - |
| 1778065205 | 8.33° C | 94% | 1003.8 hPa | 3.05 mm | - | - | - |
| 1778064990 | 8.33° C | 94% | 1003.8 hPa | 3.05 mm | - | - | - |
| 1778064660 | 8.33° C | 94% | 1003.8 hPa | 3.05 mm | - | - | - |
| 1778064331 | 8.33° C | 94% | 1003.8 hPa | 2.79 mm | - | - | - |
| 1778064030 | 8.89° C | 94% | 1003.7 hPa | 2.29 mm | - | - | - |
| 1778063700 | 8.89° C | 94% | 1003.5 hPa | 2.29 mm | - | - | - |
| 1778063370 | 8.89° C | 94% | 1003.3 hPa | 2.29 mm | - | - | - |
| 1778062741 | 8.89° C | 94% | 1003.4 hPa | 2.54 mm | - | - | - |
| 1778062411 | 8.89° C | 94% | 1003.4 hPa | 2.54 mm | - | - | - |
| 1778062080 | 9.44° C | 94% | 1003.3 hPa | 2.54 mm | - | - | - |
| 1778061751 | 9.44° C | 94% | 1003 hPa | 2.79 mm | - | - | - |
| 1778061450 | 9.44° C | 94% | 1003 hPa | 3.3 mm | - | - | - |
| 1778061207 | 9.44° C | 94% | 1003 hPa | 3.3 mm | - | - | - |
| 1778061150 | 9.44° C | 94% | 1003 hPa | 3.3 mm | - | - | - |
| 1778060820 | 10° C | 95% | 1002.8 hPa | 3.56 mm | - | - | - |
| 1778060490 | 10° C | 95% | 1003 hPa | 4.32 mm | - | - | - |
* Rain latest hour (hover to see other rain measurements)
** Current wind speed in m/s (hover to see current wind gust speed)